Preview of NWS' New Version of Forecast
This preview is not operational and should not be used for support decisions.

Regional Weather Roundup (RWR)

Issued by National Weather Service (NWS)

                            
000
ASUS43 KLSX 261307
RWRMO 

WEATHER SUMMARY FOR MISSOURI
NATIONAL WEATHER SERVICE SPRINGFIELD MO
800 AM CDT TUE MAR 26 2019

NOTE: "FAIR" INDICATES FEW OR NO CLOUDS BELOW 12,000 FEET WITH NO
       SIGNIFICANT WEATHER AND/OR OBSTRUCTIONS TO VISIBILITY.
       CURRENT SKY AND/OR WEATHER CONDITIONS ARE NOT AVAILABLE FOR
       CHILLICOTHE AND FARMINGTON.

MOZ001>031-035>038-043-044-053-054-261400-
...NORTHERN AND WESTERN MISSOURI...
  
CITY           SKY/WX    TMP DP  RH WIND       PRES   REMARKS
KANSAS CTY INT MOCLDY    37  35  92 NE5       30.38R FOG              
KANSAS C DTWN  CLOUDY    43  37  79 CALM      30.39R                  
LEE'S SUMMIT   CLOUDY    40  37  89 E6        30.38R                  
ST JOSEPH      MOCLDY    39  32  76 CALM      30.39R                  
CHILLICOTHE      N/A     34  34 100 CALM      30.41R                  
KIRKSVILLE     CLEAR     35  27  72 E5        30.42R                  
     
$$
MOZ066>068-077>081-088>096-101>105-261400-
...SOUTHWEST MISSOURI...
  
CITY           SKY/WX    TMP DP  RH WIND       PRES   REMARKS
SPRINGFIELD    CLEAR     37  35  92 CALM      30.35R FOG              
JOPLIN         FOG       35  35 100 CALM      30.37R VSB<1/4          
BRANSON        PTCLDY    39  39 100 CALM      30.35R FOG              
               
$$
MOZ032>034-039>042-045>050-055>058-069>072-261400-
...CENTRAL MISSOURI...  
  
CITY           SKY/WX    TMP DP  RH WIND       PRES   REMARKS
COLUMBIA       PTSUNNY   39  30  70 CALM      30.39R                  
JEFFERSON CITY MOSUNNY   40  28  62 CALM      30.41R                  
ROLLA          CLOUDY    38  31  76 NE5       30.37R                  
SEDALIA        CLEAR     39  34  82 E3        30.39R                  
WHITEMAN AFB   CLEAR     39  36  89 CALM      30.35R                  
WARRENSBURG    PTCLDY    37  36  93 NE3       30.40R                  
OSAGE BEACH    SUNNY     39  35  86 CALM      30.40R                  
               
$$
MOZ051-052-059>065-261400-
...EAST CENTRAL MISSOURI...
  
CITY           SKY/WX    TMP DP  RH WIND       PRES   REMARKS
ST LOUIS INTL  MOSUNNY   34  21  59 N6        30.41R WCI  29          
SPIRIT OF STL  SUNNY     36  22  56 NE8       30.41R WCI  30          
ST CHARLES     MOSUNNY   34  21  59 NE7       30.42R WCI  28          
                   
$$
MOZ072>076-082>087-097>100-106>115-261400-
...SOUTH CENTRAL AND SOUTHEAST MISSOURI...
  
CITY           SKY/WX    TMP DP  RH WIND       PRES   REMARKS
CAPE GIRARDEAU CLOUDY    41  33  73 N6        30.37R                  
FARMINGTON     MOSUNNY   35  29  78 N9        30.38R WCI  28          
POPLAR BLUFF   FAIR      43  36  76 N12       30.35R                  
WEST PLAINS    CLOUDY    42  37  82 NE7       30.36R                  
                                       
$$